Tracking 25963 objects as of 12-Aug-2022
HD Live streaming from Space Station
objects crossing your sky now

RESURS O1 DEB

Track RESURS O1 DEB now!
10-day predictions


NORAD ID: 46889
Int'l Code: 1994-074BV
Perigee: 577.7 km
Apogee: 589.7 km
Inclination: 97.9 °
Period: 96.2 minutes
Semi major axis: 6954 km
RCS: Unknown
Launch date: November 4, 1994
Source: Commonwealth of Independent States (former USSR) (CIS)
Launch site: TYURATAM MISSILE AND SPACE COMPLEX (TTMTR)

Note: This is SATELLITE DEBRIS
aabbcc
Your satellite tracking list
Your tracking list is empty




NASA's NSSDC Master Catalog

Two Line Element Set (TLE):
1 46889U 94074BV  22223.88981263  .00030944  00000-0  26901-2 0  9995
2 46889  97.8844 275.6343 0008640 130.2245 229.9734 14.96882567 95772
Source of the keplerian elements: AFSPC